Location: Unspecified
(44.0704°N, 88.6889°W)
Time: 04:15:49
(UTC+02:00)

ISS - Pass Details

Date: 25 March 2019
Orbit: 408 x 410 km, 51.6° (Epoch: 20 April)

Event Time Altitude Azimuth Distance (km) Brightness Sun altitude
Rises 03:12:57 0° 267° (W) 2,332 1.1 -21.8°
Reaches altitude 10° 03:15:12 10° 278° (W) 1,472 0.0 -22.1°
Maximum altitude 03:18:10 30° 343° (NNW) 757 -2.1 -22.6°
Enters shadow 03:18:32 30° 356° (N) 772 -2.2 -22.7°
